NOAA 17 DEB, 48749

Orbit data source: Space-Track

NOAA 17 DEB, 48749 is space debris in SSO originally from a launch on Mon, 24 Jun 2002 UTC launched from the Air Force Western Test Range (AFWTR). Debris objects in space refer to the collection of defunct objects orbiting the Earth. Examples of debris include non-operational satellites, rocket bodies, and fragments generated from explosions, collisions, or faulty payload assembly.

Loading next visibility...
Identifier
48749, 2002-032CJ
Orbit
SSO
Country
Flag of USUS
Related business
Manufacturer
Unknown
Mission
Spacecraft
Bus & Motor
Unknown
Mass
Unknown
Launch date (UTC)
2002-06-24 (24 years ago)
Launch vehicle
Unknown
Launch site
Air Force Western Test Range (AFWTR)
Object type
Payload
Rocket body
Debris
Shape & HBR
Unknown shape, 0.1 m
Radar Cross Section
Medium (>0.1 m² and <1 m²)

Expand to show TLE details & history
Last TLE update: 2 days ago

TLE from 2 days ago
0 NOAA 17 DEB
1 48749U 02032CJ  26171.26505076  .00011662  00000-0  18866-2 0  9994
2 48749  98.7146 170.5663 0004655 168.4060 191.7253 14.71468616274816
Epoch: 2026-06-20T06:21Z
TLE epoch observation values (Epoch: 2026-06-20T06:21:40.385Z)
Latitude
-0.00001°
Longitude
166.66587°
Altitude
662.575 km
Speed
7.524 km/s
True Right ascension
11h 22m 15s
True Declination
0° 00' 00"
Sunlit
Object was in daylight at epoch
Visualization orbit readout
Latitude
Unknown
Longitude
Unknown
Altitude
Unknown
Speed
Unknown
Apparent Right ascension
Unknown
Apparent Declination
Unknown
Sunlit
N/A
Visualization observer readout
Local Sidereal Time
21:36:10
Azimuth
Unknown
Elevation
Unknown
Doppler factor
Unknown
Orbital elements
Apogee altitude
656.747 km
Perigee altitude
650.201 km
Semi-major axis
7,031.611 km
Eccentricity
0.00047
Inclination
98.7146°
RAAN
170.5663°
Arg. of periapsis
168.406°
True anomaly
191.71447°
Mean anomaly
191.7253°
Eccentric anomaly
191.71988°
Mean motion
3.68096 °/min
Orbital period
97.8 mins
BSTAR
0.0018866
Loading maneuver chart data...
Computing Atmospheric mass density...

Documentation

Showing up to 5 results
|